Torna al catalogo

STARLINK-32325

AttivoComunicazioniVLEO
NORAD 61588·PAYLOAD·🇺🇸 United States

Lanciato Oct 18, 2024 da Cape Canaveral Space Force Station

Loading…

Prossimi Passaggi (prossime 24 ore)

TLE

AggiornatoSource: CelesTrak SupGP

Epoca: Sep 14, 2026, 22:53 UTC

1 61588C 24187Q   26257.95395833  .00037646  00000+0  11122-2 0  2578
2 61588  53.1577 261.8652 0001381  94.5889  64.9323 15.34372693    15

Traccia STARLINK-32325 in tempo reale con AllMySat

Download on the App Store